Weather History for Appleton, MN

Change the Weather History Date:

Thursday, November 10, 2011

  Actual Average Record
Temperature  
Mean Temperature 32 °F -  
Max Temperature 39 °F 40 °F 62 °F (2012)
Min Temperature 24 °F 23 °F 15 °F (1997)
Degree Days  
Heating Degree Days 34    
Moisture  
Dew Point 22 °F    
Average Humidity 66    
Maximum Humidity 86    
Minimum Humidity 45    
Precipitation  
Precipitation 0.00 in - - ()
Sea Level Pressure  
Sea Level Pressure 30.06 in    
Wind  
Wind Speed 14 mph (WNW)    
Max Wind Speed 22 mph    
Max Gust Speed 28 mph    
Visibility 10 miles    
Events      
Averages and records for this station are not official NWS values.
T = Trace of Precipitation, MM = Missing Value Source: NWS Daily Summary

Daily Weather History Graph

Daily Weather History Graph

Search for Another Location

Airport:

Trip Planner

Search our weather history database for the weather conditions in past years. The results will help you decide how hot, cold, wet, or windy it might be!

Date:

Astronomy

Nov. 10, 2011 Rise Set
Actual Time 7:15 AM CST 5:00 PM CST
Civil Twilight 6:43 AM CST 5:31 PM CST
Nautical Twilight 6:08 AM CST 6:06 PM CST
Astronomical Twilight 5:33 AM CST 6:41 PM CST
Moon 4:45 PM CST (11/10) 7:10 AM CST (11/10)
Length of Visible Light 10h 48m
Length of Day
9h 45m
Full, 100% of the Moon is Illuminated
Nov 10
Full
Nov 10
Full
Nov 18
Last Quarter
Nov 25
New
Dec 2
First Quarter

Hourly Weather History & Observations

Time (CST) Temp. Windchill Dew Point Humidity Pressure Visibility Wind Dir Wind Speed Gust Speed Precip Events Conditions
12:15 AM 33.8 °F 23.2 °F 21.2 °F 60% 30.09 in 10.0 mi WNW 17.3 mph 21.9 mph N/A   Overcast
12:35 AM 33.8 °F 22.2 °F 23.0 °F 65% 30.09 in 10.0 mi NW 20.7 mph 26.5 mph N/A   Overcast
12:55 AM 33.8 °F 23.9 °F 23.0 °F 65% 30.09 in 10.0 mi WNW 15.0 mph 21.9 mph N/A   Overcast
1:15 AM 33.8 °F 21.9 °F 21.2 °F 60% 30.09 in 10.0 mi NW 21.9 mph 27.6 mph N/A   Mostly Cloudy
1:35 AM 33.8 °F 22.5 °F 23.0 °F 65% 30.10 in 10.0 mi NW 19.6 mph 26.5 mph N/A   Overcast
1:55 AM 33.8 °F 22.8 °F 23.0 °F 65% 30.10 in 10.0 mi NW 18.4 mph 26.5 mph N/A   Overcast
2:14 AM 33.8 °F 22.8 °F 23.0 °F 65% 30.10 in 10.0 mi NW 18.4 mph 26.5 mph N/A   Overcast
2:34 AM 32.0 °F 20.1 °F 23.0 °F 69% 30.10 in 10.0 mi NW 19.6 mph 23.0 mph N/A   Overcast
2:55 AM 32.0 °F 20.8 °F 23.0 °F 69% 30.10 in 10.0 mi NW 17.3 mph 26.5 mph N/A   Mostly Cloudy
3:15 AM 30.2 °F 18.9 °F 23.0 °F 75% 30.11 in 10.0 mi NW 16.1 mph 21.9 mph N/A   Scattered Clouds
3:35 AM 30.2 °F 19.3 °F 23.0 °F 75% 30.11 in 10.0 mi NW 15.0 mph - N/A   Scattered Clouds
3:55 AM 28.4 °F 17.0 °F 23.0 °F 80% 30.11 in 10.0 mi WNW 15.0 mph - N/A   Scattered Clouds
4:15 AM 28.4 °F 16.2 °F 23.0 °F 80% 30.11 in 10.0 mi WNW 17.3 mph - N/A   Clear
4:55 AM 28.4 °F 18.5 °F 23.0 °F 80% 30.12 in 10.0 mi NW 11.5 mph - N/A   Scattered Clouds
5:15 AM 28.4 °F 17.0 °F 23.0 °F 80% 30.12 in 10.0 mi NW 15.0 mph 21.9 mph N/A   Scattered Clouds
5:35 AM 26.6 °F 15.2 °F 23.0 °F 86% 30.13 in 10.0 mi WNW 13.8 mph 17.3 mph N/A   Scattered Clouds
6:14 AM 26.6 °F 15.7 °F 23.0 °F 86% 30.13 in 10.0 mi WNW 12.7 mph 18.4 mph N/A   Clear
6:35 AM 26.6 °F 16.2 °F 21.2 °F 80% 30.14 in 10.0 mi WNW 11.5 mph - N/A   Clear
6:55 AM 26.6 °F 15.7 °F 21.2 °F 80% 30.14 in 10.0 mi WNW 12.7 mph - N/A   Clear
7:15 AM 24.8 °F 12.9 °F 21.2 °F 86% 30.15 in 10.0 mi WNW 13.8 mph - N/A   Clear
7:35 AM 26.6 °F 15.2 °F 21.2 °F 80% 30.15 in 10.0 mi WNW 13.8 mph 19.6 mph N/A   Clear
7:55 AM 26.6 °F 14.3 °F 21.2 °F 80% 30.15 in 10.0 mi WNW 16.1 mph 21.9 mph N/A   Scattered Clouds
8:35 AM 28.4 °F 16.6 °F 23.0 °F 80% 30.15 in 10.0 mi NW 16.1 mph 20.7 mph N/A   Mostly Cloudy
8:55 AM 28.4 °F 16.6 °F 23.0 °F 80% 30.15 in 10.0 mi NW 16.1 mph - N/A   Overcast
9:15 AM 30.2 °F 19.8 °F 21.2 °F 69% 30.15 in 10.0 mi NW 13.8 mph 21.9 mph N/A   Mostly Cloudy
9:35 AM 30.2 °F 18.5 °F 23.0 °F 75% 30.16 in 10.0 mi NW 17.3 mph - N/A   Scattered Clouds
9:41 AM 32.0 °F 20.5 °F 23.0 °F 69% 30.16 in 10.0 mi WNW 18.4 mph - N/A   Clear
10:15 AM 32.0 °F 22.1 °F 23.0 °F 69% 30.15 in 10.0 mi NW 13.8 mph - N/A   Clear
10:35 AM 33.8 °F 24.3 °F 23.0 °F 65% 30.15 in 10.0 mi NW 13.8 mph 21.9 mph N/A   Clear
10:55 AM 35.6 °F 25.5 °F 23.0 °F 60% 30.14 in 10.0 mi NW 17.3 mph 21.9 mph N/A   Scattered Clouds
11:15 AM 35.6 °F 28.0 °F 23.0 °F 60% 30.14 in 10.0 mi NW 10.4 mph 17.3 mph N/A   Scattered Clouds
11:55 AM 37.4 °F 28.5 °F 24.8 °F 60% 30.13 in 10.0 mi NNW 15.0 mph 20.7 mph N/A   Clear
12:35 PM 37.4 °F 28.2 °F 23.0 °F 56% 30.11 in 10.0 mi WNW 16.1 mph - N/A   Clear
12:55 PM 37.4 °F 28.2 °F 23.0 °F 56% 30.11 in 10.0 mi NW 16.1 mph - N/A   Clear
1:15 PM 37.4 °F 29.3 °F 23.0 °F 56% 30.10 in 10.0 mi NW 12.7 mph 19.6 mph N/A   Clear
1:55 PM 39.2 °F 31.6 °F 23.0 °F 52% 30.09 in 10.0 mi NW 12.7 mph 16.1 mph N/A   Clear
2:15 PM 39.2 °F 31.6 °F 21.2 °F 49% 30.08 in 10.0 mi West 12.7 mph - N/A   Clear
2:35 PM 39.2 °F 32.5 °F 21.2 °F 49% 30.08 in 10.0 mi West 10.4 mph - N/A   Clear
3:15 PM 39.2 °F 32.0 °F 19.4 °F 45% 30.07 in 10.0 mi WNW 11.5 mph 16.1 mph N/A   Clear
3:35 PM 39.2 °F 33.0 °F 21.2 °F 49% 30.06 in 10.0 mi WNW 9.2 mph - N/A   Clear
3:55 PM 37.4 °F 32.1 °F 21.2 °F 52% 30.05 in 10.0 mi WNW 6.9 mph - N/A   Clear
4:15 PM 37.4 °F 33.8 °F 19.4 °F 48% 30.05 in 10.0 mi West 4.6 mph - N/A   Clear
4:55 PM 33.8 °F - 17.6 °F 52% 30.03 in 10.0 mi Calm Calm - N/A   Clear
5:15 PM 32.0 °F - 19.4 °F 60% 30.03 in 10.0 mi Calm Calm - N/A   Clear
5:35 PM 30.2 °F - 19.4 °F 64% 30.03 in 10.0 mi Calm Calm - N/A   Clear
5:55 PM 28.4 °F - 19.4 °F 69% 30.02 in 10.0 mi Calm Calm - N/A   Clear
6:15 PM 28.4 °F - 24.8 °F 86% 30.02 in 10.0 mi Calm Calm - N/A   Clear
6:35 PM 30.2 °F - 23.0 °F 75% 30.01 in 10.0 mi Calm Calm - N/A   Clear
6:55 PM 30.2 °F 26.7 °F 21.2 °F 69% 29.99 in 10.0 mi SSE 3.5 mph - N/A   Clear
7:15 PM 30.2 °F 26.7 °F 21.2 °F 69% 29.99 in 10.0 mi SSE 3.5 mph - N/A   Clear
7:34 PM 30.2 °F 25.4 °F 21.2 °F 69% 29.98 in 10.0 mi South 4.6 mph - N/A   Clear
7:55 PM 32.0 °F 26.4 °F 21.2 °F 64% 29.97 in 10.0 mi South 5.8 mph - N/A   Clear
8:15 PM 32.0 °F 27.5 °F 21.2 °F 64% 29.96 in 10.0 mi South 4.6 mph - N/A   Clear
8:35 PM 33.8 °F 29.6 °F 23.0 °F 65% 29.95 in 10.0 mi South 4.6 mph - N/A   Scattered Clouds
8:55 PM 33.8 °F 29.6 °F 21.2 °F 60% 29.95 in 10.0 mi SSE 4.6 mph - N/A   Mostly Cloudy
9:15 PM 32.0 °F 27.5 °F 21.2 °F 64% 29.94 in 10.0 mi SSE 4.6 mph - N/A   Mostly Cloudy
9:35 PM 32.0 °F 27.5 °F 21.2 °F 64% 29.94 in 10.0 mi South 4.6 mph - N/A   Scattered Clouds
9:55 PM 33.8 °F 29.6 °F 19.4 °F 56% 29.93 in 10.0 mi SSE 4.6 mph - N/A   Mostly Cloudy
10:15 PM 33.8 °F 28.6 °F 19.4 °F 56% 29.92 in 10.0 mi SE 5.8 mph - N/A   Overcast
10:35 PM 33.8 °F 28.6 °F 19.4 °F 56% 29.91 in 10.0 mi SSE 5.8 mph - N/A   Overcast
10:55 PM 33.8 °F 27.0 °F 17.6 °F 52% 29.89 in 10.0 mi SE 8.1 mph - N/A   Mostly Cloudy
11:15 PM 33.8 °F 27.0 °F 17.6 °F 52% 29.88 in 10.0 mi SSE 8.1 mph - N/A   Scattered Clouds
11:35 PM 33.8 °F 26.4 °F 17.6 °F 52% 29.87 in 10.0 mi SSE 9.2 mph - N/A   Mostly Cloudy
11:55 PM 33.8 °F 25.3 °F 15.8 °F 48% 29.86 in 10.0 mi SSE 11.5 mph - N/A   Mostly Cloudy